Torna al catalogo

THORAD DELTA 1 DEB

LostUNKNOWN
NORAD 13526·DEBRIS·🇺🇸 United States

Lanciato Nov 15, 1974 da Vandenberg Space Force Base

Loading…

Prossimi Passaggi (prossime 24 ore)

TLE

ObsoletoSource: Space-Track

Epoca: Aug 18, 2019, 01:02 UTC

1 13526U 74089EM  19230.04374589 -.00000029  00000-0  34319-4 0  9996
2 13526 101.1740 317.5017 0475814  76.1490 289.2004 11.89642017 52497

Traccia THORAD DELTA 1 DEB in tempo reale con AllMySat

Download on the App Store